Tracking 31027 objects as of 19-Jul-2025
HD Live streaming from Space Station
objects crossing your sky now

TITAN 3C TRANSTAGE R/B

Track TITAN 3C TRANSTAGE R/B now!


NORAD ID: 11940
Int'l Code: 1973-040B
Perigee: 35,867.5 km
Apogee: 36,120.0 km
Inclination: 1.8 °
Period: 1,446.3 minutes
Semi major axis: 42364 km
RCS: Unknown
Launch date: June 12, 1973
Source: United States (US)
Launch site: AIR FORCE EASTERN TEST RANGE (AFETR)

Note: This is a ROCKET BODY
Your satellite tracking list
ONEWEB-0142
Track 1 satellite(s)




NASA's NSSDC Master Catalog

Two Line Element Set (TLE):
1 11940U 73040B   25199.01391209 -.00000249  00000-0  00000-0 0  9996
2 11940   1.8311 251.4717 0029803  67.6567 292.9827  0.99562516 23307
Source of the keplerian elements: McCants